Location: Niedergestelen
(46.3129°N, 7.7822°E)
Time: 19:09:47
(UTC+00:00)

X-37B - Pass Details

Date: 29 September 2021
Orbit: 385 x 389 km, 45.0° (Epoch: 17 October)

Event Time Altitude Azimuth Distance (km) Brightness Sun altitude
Exits shadow 04:35:01 14° 269° (W) 1,199 2.4 -9.4°
Maximum altitude 04:37:36 55° 192° (SSW) 469 0.9 -9.0°
Drops below altitude 10° 04:40:44 10° 113° (ESE) 1,413 4.5 -8.4°
Sets 04:42:49 0° 109° (ESE) 2,267 5.9 -8.1°
